Clinton, British Columbia

11:56 PM PST on January 15, 2018 (GMT -0800)
Clinton

Weather History for CWCL - October, 2013

Change the Weather History Date:

Friday, October 4, 2013

  Actual Average Record
Temperature  
Mean Temperature 38 °F -  
Max Temperature 47 °F 44 °F 71 °F (2003)
Min Temperature 28 °F 27 °F 22 °F (2017)
Degree Days  
Heating Degree Days 28    
Moisture  
Dew Point 30 °F    
Average Humidity 67    
Maximum Humidity 87    
Minimum Humidity 43    
Precipitation  
Precipitation 0.00 in - - ()
Sea Level Pressure  
Sea Level Pressure 30.37 in    
Wind  
Wind Speed 6 mph ()    
Max Wind Speed 13 mph    
Max Gust Speed 22 mph    
Visibility 9.0 miles    
Events Rain    
Averages and records for this station are not official NWS values.
T = Trace of Precipitation, MM = Missing Value Source: Averaged Metar Reports

Daily Weather History Graph

Daily Weather History Graph

Search for Another Location

Airport or City:

Trip Planner

Search our weather history database for the weather conditions in past years. The results will help you decide how hot, cold, wet, or windy it might be!

Date:

Astronomy

Oct. 04, 2013 Rise Set
Actual Time 7:12 AM PDT 6:36 PM PDT
Civil Twilight 6:38 AM PDT 7:09 PM PDT
Nautical Twilight 6:00 AM PDT 7:47 PM PDT
Astronomical Twilight 5:21 AM PDT 8:26 PM PDT
Moon 6:55 AM PDT (10/4) 6:16 PM PDT (10/4)
Length of Visible Light 12h 30m
Length of Day
11h 24m
Waning Crescent, 0% of the Moon is Illuminated
Oct 4
Waning Crescent
Oct 4
New
Oct 11
First Quarter
Oct 18
Full
Oct 26
Last Quarter

Hourly Weather History & Observations

Time (PDT) Temp. Windchill Dew Point Humidity Pressure Visibility Wind Dir Wind Speed Gust Speed Precip Events Conditions
12:00 AM 30.2 °F 25.4 °F 24.8 °F 80% 30.45 in 9.0 mi SW 4.6 mph - N/A   Clear
1:00 AM 30.2 °F - 24.8 °F 80% 30.43 in 9.0 mi SSW 2.3 mph - N/A   Clear
2:00 AM 29 °F - 24 °F 75% 30.43 in 9 mi SSW 5.8 mph - -  
2:00 AM 30.2 °F 23.4 °F 24.8 °F 80% 30.43 in 9.0 mi South 6.9 mph - N/A   Clear
3:00 AM 32.0 °F 27.5 °F 26.6 °F 80% 30.43 in 9.0 mi South 4.6 mph - N/A   Clear
4:00 AM 32.0 °F 26.4 °F 26.6 °F 80% 30.43 in 9.0 mi SSW 5.8 mph - N/A   Clear
5:00 AM 33 °F - 29 °F 77% 30.40 in 9 mi South 9.2 mph - -  
5:00 AM 33.8 °F 27.0 °F 28.4 °F 81% 30.40 in 9.0 mi South 8.1 mph - N/A   Clear
6:00 AM 32.0 °F 26.4 °F 28.4 °F 87% 30.41 in 9.0 mi South 5.8 mph - N/A   Clear
7:00 AM 32.0 °F 25.6 °F 28.4 °F 87% 30.44 in 9.0 mi South 6.9 mph - N/A   Clear
8:00 AM 32 °F - 29 °F 82% 30.45 in 9 mi South 6.9 mph - -  
8:00 AM 32.0 °F 25.6 °F 28.4 °F 87% 30.45 in 9.0 mi South 6.9 mph - N/A   Clear
9:00 AM 35.6 °F 28.0 °F 30.2 °F 81% 30.44 in 9.0 mi South 10.4 mph - N/A   Partly Cloudy
10:00 AM 37.4 °F 30.3 °F 32.0 °F 81% 30.43 in 9.0 mi SSE 10.4 mph 18.4 mph N/A   Partly Cloudy
11:00 AM 40 °F - 32 °F 64% 30.41 in 9 mi SSE 11.5 mph - -  
11:00 AM 41.0 °F 34.3 °F 32.0 °F 70% 30.41 in 9.0 mi SSE 11.5 mph 17.3 mph N/A   Partly Cloudy
12:00 PM 44.6 °F 38.4 °F 32.0 °F 61% 30.38 in 9.0 mi South 12.7 mph 20.7 mph N/A   Partly Cloudy
1:00 PM 44.6 °F 38.8 °F 30.2 °F 57% 30.38 in 9.0 mi South 11.5 mph 21.9 mph N/A   Partly Cloudy
2:00 PM 44 °F - 32 °F 51% 30.36 in 9 mi South 9.2 mph - - Rain Light Rain
2:00 PM 44.6 °F 39.7 °F 32.0 °F 61% 30.36 in 9.0 mi South 9.2 mph 20.7 mph N/A Rain Light Rain
2:20 PM 44.6 °F 39.7 °F 32.0 °F 61% 30.25 in 9.0 mi South 9.2 mph 18.4 mph N/A   Scattered Clouds
3:00 PM 46.4 °F 41.1 °F 32.0 °F 57% 30.33 in 9.0 mi South 11.5 mph 21.9 mph N/A   Partly Cloudy
4:00 PM 46.4 °F 42.4 °F 32.0 °F 57% 30.32 in 9.0 mi SSE 8.1 mph 18.4 mph N/A   Partly Cloudy
5:00 PM 47 °F - 32 °F 43% 30.32 in 9 mi SSE 6.9 mph - -   Unknown Precipitation
5:00 PM 46.4 °F 43.5 °F 32.0 °F 57% 30.32 in 9.0 mi South 5.8 mph - N/A   Partly Cloudy
6:00 PM 46.4 °F 42.4 °F 32.0 °F 57% 30.32 in 9.0 mi South 8.1 mph - N/A   Partly Cloudy
7:00 PM 46.4 °F 44.3 °F 32.0 °F 57% 30.30 in 9.0 mi South 4.6 mph - N/A   Overcast
8:00 PM 46 °F - 31 °F 45% 30.32 in 9 mi South 3.5 mph - -  
8:00 PM 46.4 °F 45.2 °F 32.0 °F 57% 30.32 in 9.0 mi South 3.5 mph - N/A   Scattered Clouds
9:00 PM 44.6 °F 43.1 °F 32.0 °F 61% 30.31 in 9.0 mi SSW 3.5 mph - N/A   Clear
10:00 PM 46.4 °F 41.9 °F 32.0 °F 57% 30.29 in 9.0 mi South 9.2 mph - N/A   Scattered Clouds
11:00 PM 45 °F - 33 °F 50% 30.29 in 9 mi SSE 3.5 mph - -  
11:00 PM 44.6 °F 43.1 °F 32.0 °F 61% 30.29 in 9.0 mi SSE 3.5 mph - N/A   Partly Cloudy